Time,TemperatureF,DewpointF,PressureIn,WindDirection,WindDirectionDegrees,WindSpeedMPH,WindSpeedGustMPH,Humidity,HourlyPrecipIn,Conditions,Clouds,dailyrainin,SoftwareType,DateUTC
2013-08-19 00:04:00,63.5,60.2,30.02,North,-999,0.0,0.0,89,0.00,,,-99.99,WeatherLink 5.7,2013-08-19 04:04:00,
2013-08-19 00:09:00,63.4,60.4,30.02,North,-999,0.0,0.0,90,0.00,,,-99.99,WeatherLink 5.7,2013-08-19 04:09:00,
2013-08-19 00:14:00,63.4,60.4,30.02,North,-999,0.0,0.0,90,0.00,,,-99.99,WeatherLink 5.7,2013-08-19 04:14:00,
2013-08-19 00:24:00,63.1,60.1,30.02,North,-999,0.0,0.0,90,0.00,,,-99.99,WeatherLink 5.7,2013-08-19 04:24:00,
2013-08-19 00:34:00,62.9,59.9,30.01,North,-999,0.0,0.0,90,0.00,,,-99.99,WeatherLink 5.7,2013-08-19 04:34:00,
2013-08-19 00:39:00,62.9,60.2,30.01,North,-999,0.0,0.0,91,0.00,,,-99.99,WeatherLink 5.7,2013-08-19 04:39:00,
2013-08-19 00:44:00,62.7,60.0,30.01,North,-999,0.0,0.0,91,0.00,,,-99.99,WeatherLink 5.7,2013-08-19 04:44:00,
2013-08-19 00:54:00,62.6,59.9,30.01,North,-999,0.0,0.0,91,0.00,,,-99.99,WeatherLink 5.7,2013-08-19 04:54:00,
2013-08-19 00:59:00,62.6,59.9,30.01,North,-999,0.0,0.0,91,0.00,,,-99.99,WeatherLink 5.7,2013-08-19 04:59:00,
2013-08-19 01:09:00,62.3,59.6,30.01,North,-999,0.0,0.0,91,0.00,,,-99.99,WeatherLink 5.7,2013-08-19 05:09:00,
2013-08-19 01:19:00,62.0,59.3,30.01,North,-999,0.0,0.0,91,0.00,,,-99.99,WeatherLink 5.7,2013-08-19 05:19:00,
2013-08-19 01:29:00,61.6,58.9,30.01,North,-999,0.0,0.0,91,0.00,,,-99.99,WeatherLink 5.7,2013-08-19 05:29:00,
2013-08-19 01:39:00,61.3,58.7,30.00,North,-999,0.0,0.0,91,0.00,,,-99.99,WeatherLink 5.7,2013-08-19 05:39:00,
2013-08-19 01:44:00,61.2,58.6,30.00,North,-999,0.0,0.0,91,0.00,,,-99.99,WeatherLink 5.7,2013-08-19 05:44:00,
2013-08-19 01:54:00,61.0,58.4,30.00,North,-999,0.0,0.0,91,0.00,,,-99.99,WeatherLink 5.7,2013-08-19 05:54:00,
2013-08-19 02:04:00,60.7,58.4,30.00,North,-999,0.0,0.0,92,0.00,,,-99.99,WeatherLink 5.7,2013-08-19 06:04:00,
2013-08-19 02:09:00,60.5,58.2,30.00,North,-999,0.0,0.0,92,0.00,,,-99.99,WeatherLink 5.7,2013-08-19 06:09:00,
2013-08-19 02:19:00,60.2,57.9,29.99,North,-999,0.0,0.0,92,0.00,,,-99.99,WeatherLink 5.7,2013-08-19 06:19:00,
2013-08-19 02:29:00,60.1,58.1,29.99,North,-999,0.0,0.0,93,0.00,,,-99.99,WeatherLink 5.7,2013-08-19 06:29:00,
2013-08-19 02:39:00,60.1,58.1,29.99,North,-999,0.0,0.0,93,0.00,,,-99.99,WeatherLink 5.7,2013-08-19 06:39:00,
2013-08-19 02:49:00,60.1,58.4,29.99,North,-999,0.0,0.0,94,0.00,,,-99.99,WeatherLink 5.7,2013-08-19 06:49:00,
2013-08-19 02:59:00,60.1,58.4,29.99,North,-999,0.0,0.0,94,0.00,,,-99.99,WeatherLink 5.7,2013-08-19 06:59:00,
2013-08-19 03:04:00,60.2,58.5,29.99,North,-999,0.0,0.0,94,0.00,,,-99.99,WeatherLink 5.7,2013-08-19 07:04:00,
2013-08-19 03:14:00,60.4,58.7,29.99,North,-999,0.0,0.0,94,0.00,,,-99.99,WeatherLink 5.7,2013-08-19 07:14:00,
2013-08-19 03:24:00,60.2,58.5,29.98,North,-999,0.0,0.0,94,0.00,,,-99.99,WeatherLink 5.7,2013-08-19 07:24:00,
2013-08-19 03:34:00,60.2,58.5,29.98,North,-999,0.0,0.0,94,0.00,,,-99.99,WeatherLink 5.7,2013-08-19 07:34:00,
2013-08-19 03:44:00,60.2,58.5,29.98,North,-999,0.0,0.0,94,0.00,,,-99.99,WeatherLink 5.7,2013-08-19 07:44:00,
2013-08-19 03:54:00,60.4,58.7,29.98,North,-999,0.0,0.0,94,0.00,,,-99.99,WeatherLink 5.7,2013-08-19 07:54:00,
2013-08-19 04:04:00,60.2,58.5,29.98,North,-999,0.0,0.0,94,0.00,,,-99.99,WeatherLink 5.7,2013-08-19 08:04:00,
2013-08-19 04:14:00,60.1,58.4,29.98,North,-999,0.0,0.0,94,0.00,,,-99.99,WeatherLink 5.7,2013-08-19 08:14:00,
2013-08-19 04:24:00,59.9,58.2,29.98,North,-999,0.0,0.0,94,0.00,,,-99.99,WeatherLink 5.7,2013-08-19 08:24:00,
2013-08-19 04:29:00,59.9,58.2,29.98,North,-999,0.0,0.0,94,0.00,,,-99.99,WeatherLink 5.7,2013-08-19 08:29:00,
2013-08-19 04:39:00,59.8,58.4,29.98,North,-999,0.0,0.0,95,0.00,,,-99.99,WeatherLink 5.7,2013-08-19 08:39:00,
2013-08-19 04:49:00,59.6,58.2,29.98,North,-999,0.0,0.0,95,0.00,,,-99.99,WeatherLink 5.7,2013-08-19 08:49:00,
2013-08-19 04:59:00,59.5,58.1,29.98,North,-999,0.0,0.0,95,0.00,,,-99.99,WeatherLink 5.7,2013-08-19 08:59:00,
2013-08-19 05:09:00,59.2,57.8,29.98,North,-999,0.0,0.0,95,0.00,,,-99.99,WeatherLink 5.7,2013-08-19 09:09:00,
2013-08-19 05:19:00,59.0,57.6,29.98,North,-999,0.0,0.0,95,0.00,,,-99.99,WeatherLink 5.7,2013-08-19 09:19:00,
2013-08-19 05:29:00,58.9,57.5,29.98,North,-999,0.0,0.0,95,0.00,,,-99.99,WeatherLink 5.7,2013-08-19 09:29:00,
2013-08-19 05:39:00,58.6,57.5,29.98,North,-999,0.0,0.0,96,0.00,,,-99.99,WeatherLink 5.7,2013-08-19 09:39:00,
2013-08-19 05:49:00,58.6,57.5,29.98,North,-999,0.0,0.0,96,0.00,,,-99.99,WeatherLink 5.7,2013-08-19 09:49:00,
2013-08-19 05:59:00,58.6,57.5,29.98,North,-999,0.0,0.0,96,0.00,,,-99.99,WeatherLink 5.7,2013-08-19 09:59:00,
2013-08-19 06:04:00,58.6,57.5,29.98,North,-999,0.0,0.0,96,0.00,,,-99.99,WeatherLink 5.7,2013-08-19 10:04:00,
2013-08-19 06:14:00,58.7,57.6,29.98,North,-999,0.0,0.0,96,0.00,,,-99.99,WeatherLink 5.7,2013-08-19 10:14:00,
2013-08-19 06:24:00,58.9,57.8,29.98,North,-999,0.0,0.0,96,0.00,,,-99.99,WeatherLink 5.7,2013-08-19 10:24:00,
2013-08-19 06:34:00,59.0,57.9,29.98,North,-999,0.0,0.0,96,0.00,,,-99.99,WeatherLink 5.7,2013-08-19 10:34:00,
2013-08-19 06:39:00,59.2,58.1,29.98,North,-999,0.0,0.0,96,0.00,,,-99.99,WeatherLink 5.7,2013-08-19 10:39:00,
2013-08-19 06:49:00,59.6,58.5,29.98,SW,225,0.0,2.0,96,0.00,,,-99.99,WeatherLink 5.7,2013-08-19 10:49:00,
2013-08-19 06:54:00,59.8,58.7,29.98,SW,225,0.0,1.0,96,0.00,,,-99.99,WeatherLink 5.7,2013-08-19 10:54:00,
2013-08-19 06:59:00,59.9,58.8,29.98,North,-999,0.0,0.0,96,0.00,,,-99.99,WeatherLink 5.7,2013-08-19 10:59:00,
2013-08-19 07:09:00,60.1,59.0,29.98,North,-999,0.0,0.0,96,0.00,,,-99.99,WeatherLink 5.7,2013-08-19 11:09:00,
2013-08-19 07:14:00,60.2,59.1,29.98,North,-999,0.0,0.0,96,0.00,,,-99.99,WeatherLink 5.7,2013-08-19 11:14:00,
2013-08-19 07:24:00,60.5,59.4,29.98,North,-999,0.0,0.0,96,0.00,,,-99.99,WeatherLink 5.7,2013-08-19 11:24:00,
2013-08-19 07:34:00,61.0,59.6,29.98,North,-999,0.0,0.0,95,0.00,,,-99.99,WeatherLink 5.7,2013-08-19 11:34:00,
2013-08-19 07:44:00,61.6,59.9,29.98,North,-999,0.0,0.0,94,0.00,,,-99.99,WeatherLink 5.7,2013-08-19 11:44:00,
2013-08-19 07:54:00,62.0,60.0,29.98,WNW,292,0.0,1.0,93,0.00,,,-99.99,WeatherLink 5.7,2013-08-19 11:54:00,
2013-08-19 08:04:00,62.1,59.7,29.98,WNW,292,1.0,3.0,92,0.00,,,-99.99,WeatherLink 5.7,2013-08-19 12:04:00,
2013-08-19 08:09:00,62.7,60.0,29.98,North,-999,0.0,0.0,91,0.00,,,-99.99,WeatherLink 5.7,2013-08-19 12:09:00,
2013-08-19 08:19:00,63.7,60.7,29.97,WNW,292,0.0,2.0,90,0.00,,,-99.99,WeatherLink 5.7,2013-08-19 12:19:00,
2013-08-19 08:29:00,64.8,60.8,29.97,WSW,247,0.0,2.0,87,0.00,,,-99.99,WeatherLink 5.7,2013-08-19 12:29:00,
2013-08-19 08:39:00,66.0,61.4,29.98,West,270,0.0,2.0,85,0.00,,,-99.99,WeatherLink 5.7,2013-08-19 12:39:00,
2013-08-19 08:49:00,66.8,61.1,29.98,West,270,0.0,3.0,82,0.00,,,-99.99,WeatherLink 5.7,2013-08-19 12:49:00,
2013-08-19 08:59:00,67.8,60.7,29.98,West,270,1.0,3.0,78,0.00,,,-99.99,WeatherLink 5.7,2013-08-19 12:59:00,
2013-08-19 09:09:00,68.9,61.8,29.97,West,270,0.0,2.0,78,0.00,,,-99.99,WeatherLink 5.7,2013-08-19 13:09:00,
2013-08-19 09:14:00,69.9,62.4,29.97,WNW,292,0.0,2.0,77,0.00,,,-99.99,WeatherLink 5.7,2013-08-19 13:14:00,
2013-08-19 09:24:00,72.0,62.1,29.97,WNW,292,0.0,2.0,71,0.00,,,-99.99,WeatherLink 5.7,2013-08-19 13:24:00,
2013-08-19 09:29:00,72.8,61.6,29.97,West,270,1.0,4.0,68,0.00,,,-99.99,WeatherLink 5.7,2013-08-19 13:29:00,
2013-08-19 09:39:00,74.6,61.6,29.96,West,270,1.0,5.0,64,0.00,,,-99.99,WeatherLink 5.7,2013-08-19 13:39:00,
2013-08-19 09:49:00,75.8,61.8,29.96,WSW,247,1.0,4.0,62,0.00,,,-99.99,WeatherLink 5.7,2013-08-19 13:49:00,
2013-08-19 09:59:00,77.2,61.8,29.96,West,270,1.0,3.0,59,0.00,,,-99.99,WeatherLink 5.7,2013-08-19 13:59:00,
2013-08-19 10:09:00,77.6,63.1,29.96,SW,225,0.0,2.0,61,0.00,,,-99.99,WeatherLink 5.7,2013-08-19 14:09:00,
2013-08-19 10:19:00,77.9,62.4,29.96,WNW,292,0.0,1.0,59,0.00,,,-99.99,WeatherLink 5.7,2013-08-19 14:19:00,
2013-08-19 10:29:00,78.1,63.1,29.96,North,0,0.0,2.0,60,0.00,,,-99.99,WeatherLink 5.7,2013-08-19 14:29:00,
2013-08-19 10:39:00,79.0,63.4,29.96,North,0,1.0,5.0,59,0.00,,,-99.99,WeatherLink 5.7,2013-08-19 14:39:00,
2013-08-19 10:49:00,79.6,62.5,29.95,WSW,247,0.0,1.0,56,0.00,,,-99.99,WeatherLink 5.7,2013-08-19 14:49:00,
2013-08-19 10:59:00,80.9,61.6,29.95,WNW,292,0.0,1.0,52,0.00,,,-99.99,WeatherLink 5.7,2013-08-19 14:59:00,
2013-08-19 11:09:00,81.6,61.2,29.94,West,270,1.0,2.0,50,0.00,,,-99.99,WeatherLink 5.7,2013-08-19 15:09:00,
2013-08-19 11:19:00,82.4,63.0,29.94,North,-999,0.0,0.0,52,0.00,,,-99.99,WeatherLink 5.7,2013-08-19 15:19:00,
2013-08-19 11:24:00,82.6,61.5,29.94,WSW,247,0.0,2.0,49,0.00,,,-99.99,WeatherLink 5.7,2013-08-19 15:24:00,
2013-08-19 11:34:00,82.8,61.7,29.94,WNW,292,0.0,3.0,49,0.00,,,-99.99,WeatherLink 5.7,2013-08-19 15:34:00,
2013-08-19 11:39:00,82.6,63.2,29.94,SW,225,0.0,1.0,52,0.00,,,-99.99,WeatherLink 5.7,2013-08-19 15:39:00,
2013-08-19 11:49:00,83.0,62.4,29.94,NW,315,0.0,2.0,50,0.00,,,-99.99,WeatherLink 5.7,2013-08-19 15:49:00,
2013-08-19 11:59:00,83.2,61.5,29.94,SSE,157,1.0,3.0,48,0.00,,,-99.99,WeatherLink 5.7,2013-08-19 15:59:00,
2013-08-19 12:09:00,84.0,62.2,29.94,WNW,292,1.0,4.0,48,0.00,,,-99.99,WeatherLink 5.7,2013-08-19 16:09:00,
2013-08-19 12:19:00,84.3,63.1,29.94,WSW,247,1.0,6.0,49,0.00,,,-99.99,WeatherLink 5.7,2013-08-19 16:19:00,
2013-08-19 12:29:00,84.3,63.6,29.94,WSW,247,1.0,3.0,50,0.00,,,-99.99,WeatherLink 5.7,2013-08-19 16:29:00,
2013-08-19 12:34:00,84.7,63.4,29.94,East,90,0.0,4.0,49,0.00,,,-99.99,WeatherLink 5.7,2013-08-19 16:34:00,
2013-08-19 12:44:00,84.5,63.2,29.94,NW,315,1.0,5.0,49,0.00,,,-99.99,WeatherLink 5.7,2013-08-19 16:44:00,
2013-08-19 12:49:00,85.3,62.8,29.93,NW,315,1.0,5.0,47,0.00,,,-99.99,WeatherLink 5.7,2013-08-19 16:49:00,
2013-08-19 12:54:00,84.9,64.2,29.93,South,180,1.0,5.0,50,0.00,,,-99.99,WeatherLink 5.7,2013-08-19 16:54:00,
2013-08-19 12:59:00,85.1,64.4,29.93,North,0,1.0,2.0,50,0.00,,,-99.99,WeatherLink 5.7,2013-08-19 16:59:00,
2013-08-19 13:04:00,84.9,65.3,29.92,West,270,1.0,3.0,52,0.00,,,-99.99,WeatherLink 5.7,2013-08-19 17:04:00,
2013-08-19 13:09:00,84.7,62.8,29.92,North,-999,0.0,0.0,48,0.00,,,-99.99,WeatherLink 5.7,2013-08-19 17:09:00,
2013-08-19 13:14:00,84.9,63.6,29.92,North,-999,0.0,0.0,49,0.00,,,-99.99,WeatherLink 5.7,2013-08-19 17:14:00,
2013-08-19 13:19:00,84.9,63.6,29.92,SE,135,0.0,2.0,49,0.00,,,-99.99,WeatherLink 5.7,2013-08-19 17:19:00,
2013-08-19 13:24:00,84.1,62.9,29.92,SE,135,1.0,2.0,49,0.00,,,-99.99,WeatherLink 5.7,2013-08-19 17:24:00,
2013-08-19 13:29:00,83.8,62.6,29.92,North,0,0.0,1.0,49,0.00,,,-99.99,WeatherLink 5.7,2013-08-19 17:29:00,
2013-08-19 13:39:00,84.3,61.9,29.92,North,0,0.0,3.0,47,0.00,,,-99.99,WeatherLink 5.7,2013-08-19 17:39:00,
2013-08-19 13:44:00,84.3,63.6,29.92,North,0,0.0,1.0,50,0.00,,,-99.99,WeatherLink 5.7,2013-08-19 17:44:00,
2013-08-19 13:54:00,84.0,62.8,29.92,NNE,22,0.0,3.0,49,0.00,,,-99.99,WeatherLink 5.7,2013-08-19 17:54:00,
2013-08-19 13:59:00,83.4,62.2,29.92,North,0,0.0,2.0,49,0.00,,,-99.99,WeatherLink 5.7,2013-08-19 17:59:00,
2013-08-19 14:04:00,83.2,64.3,29.91,North,0,0.0,2.0,53,0.00,,,-99.99,WeatherLink 5.7,2013-08-19 18:04:00,
2013-08-19 14:09:00,83.2,64.8,29.91,North,-999,0.0,0.0,54,0.00,,,-99.99,WeatherLink 5.7,2013-08-19 18:09:00,
2013-08-19 14:19:00,83.2,62.6,29.91,WNW,292,1.0,2.0,50,0.00,,,-99.99,WeatherLink 5.7,2013-08-19 18:19:00,
2013-08-19 14:24:00,83.4,63.4,29.91,WNW,292,0.0,1.0,51,0.00,,,-99.99,WeatherLink 5.7,2013-08-19 18:24:00,
2013-08-19 14:29:00,83.4,62.8,29.91,WNW,292,0.0,2.0,50,0.00,,,-99.99,WeatherLink 5.7,2013-08-19 18:29:00,
2013-08-19 14:34:00,83.6,62.4,29.91,NNE,22,0.0,4.0,49,0.00,,,-99.99,WeatherLink 5.7,2013-08-19 18:34:00,
2013-08-19 14:39:00,83.6,61.8,29.91,NW,315,0.0,2.0,48,0.00,,,-99.99,WeatherLink 5.7,2013-08-19 18:39:00,
2013-08-19 14:49:00,83.4,62.2,29.91,SSW,202,0.0,1.0,49,0.00,,,-99.99,WeatherLink 5.7,2013-08-19 18:49:00,
2013-08-19 14:54:00,83.0,63.6,29.91,West,270,0.0,3.0,52,0.00,,,-99.99,WeatherLink 5.7,2013-08-19 18:54:00,
2013-08-19 14:59:00,82.8,62.8,29.91,West,270,0.0,2.0,51,0.00,,,-99.99,WeatherLink 5.7,2013-08-19 18:59:00,
2013-08-19 15:09:00,82.6,63.2,29.91,North,0,0.0,3.0,52,0.00,,,-99.99,WeatherLink 5.7,2013-08-19 19:09:00,
2013-08-19 15:19:00,82.4,60.7,29.91,NW,315,1.0,3.0,48,0.00,,,-99.99,WeatherLink 5.7,2013-08-19 19:19:00,
2013-08-19 15:24:00,82.2,60.6,29.91,West,270,0.0,2.0,48,0.00,,,-99.99,WeatherLink 5.7,2013-08-19 19:24:00,
2013-08-19 15:29:00,81.8,61.9,29.91,West,270,0.0,1.0,51,0.00,,,-99.99,WeatherLink 5.7,2013-08-19 19:29:00,
2013-08-19 15:39:00,81.2,62.4,29.91,North,-999,0.0,0.0,53,0.00,,,-99.99,WeatherLink 5.7,2013-08-19 19:39:00,
2013-08-19 15:49:00,80.7,64.1,29.90,North,-999,0.0,0.0,57,0.00,,,-99.99,WeatherLink 5.7,2013-08-19 19:49:00,
2013-08-19 15:54:00,80.3,62.7,29.90,West,270,0.0,3.0,55,0.00,,,-99.99,WeatherLink 5.7,2013-08-19 19:54:00,
2013-08-19 16:04:00,80.1,60.9,29.90,WSW,247,1.0,5.0,52,0.00,,,-99.99,WeatherLink 5.7,2013-08-19 20:04:00,
2013-08-19 16:09:00,79.9,62.3,29.90,SE,135,0.0,2.0,55,0.00,,,-99.99,WeatherLink 5.7,2013-08-19 20:09:00,
2013-08-19 16:19:00,79.6,63.0,29.90,North,-999,0.0,0.0,57,0.00,,,-99.99,WeatherLink 5.7,2013-08-19 20:19:00,
2013-08-19 16:29:00,78.8,63.7,29.90,East,90,0.0,2.0,60,0.00,,,-99.99,WeatherLink 5.7,2013-08-19 20:29:00,
2013-08-19 16:34:00,78.6,62.6,29.90,East,90,0.0,1.0,58,0.00,,,-99.99,WeatherLink 5.7,2013-08-19 20:34:00,
2013-08-19 16:44:00,78.8,62.8,29.90,North,-999,0.0,0.0,58,0.00,,,-99.99,WeatherLink 5.7,2013-08-19 20:44:00,
2013-08-19 16:54:00,78.6,62.1,29.90,WNW,292,0.0,5.0,57,0.00,,,-99.99,WeatherLink 5.7,2013-08-19 20:54:00,
2013-08-19 17:04:00,78.3,63.3,29.90,North,-999,0.0,0.0,60,0.00,,,-99.99,WeatherLink 5.7,2013-08-19 21:04:00,
2013-08-19 17:14:00,77.9,64.3,29.90,NNW,337,0.0,1.0,63,0.00,,,-99.99,WeatherLink 5.7,2013-08-19 21:14:00,
2013-08-19 17:24:00,77.6,64.5,29.90,North,-999,0.0,0.0,64,0.00,,,-99.99,WeatherLink 5.7,2013-08-19 21:24:00,
2013-08-19 17:34:00,77.4,64.7,29.90,North,-999,0.0,0.0,65,0.00,,,-99.99,WeatherLink 5.7,2013-08-19 21:34:00,
2013-08-19 17:44:00,77.2,63.6,29.90,North,0,0.0,3.0,63,0.00,,,-99.99,WeatherLink 5.7,2013-08-19 21:44:00,
2013-08-19 17:49:00,77.4,64.7,29.90,North,-999,0.0,0.0,65,0.00,,,-99.99,WeatherLink 5.7,2013-08-19 21:49:00,
2013-08-19 17:59:00,77.4,65.6,29.90,North,-999,0.0,0.0,67,0.00,,,-99.99,WeatherLink 5.7,2013-08-19 21:59:00,
2013-08-19 18:09:00,77.0,63.9,29.90,West,270,1.0,3.0,64,0.00,,,-99.99,WeatherLink 5.7,2013-08-19 22:09:00,
2013-08-19 18:19:00,76.7,64.0,29.90,North,-999,0.0,0.0,65,0.00,,,-99.99,WeatherLink 5.7,2013-08-19 22:19:00,
2013-08-19 18:29:00,76.1,63.9,29.90,North,-999,0.0,0.0,66,0.00,,,-99.99,WeatherLink 5.7,2013-08-19 22:29:00,
2013-08-19 18:39:00,75.6,64.3,29.91,North,-999,0.0,0.0,68,0.00,,,-99.99,WeatherLink 5.7,2013-08-19 22:39:00,
2013-08-19 18:44:00,75.3,63.6,29.91,North,-999,0.0,0.0,67,0.00,,,-99.99,WeatherLink 5.7,2013-08-19 22:44:00,
2013-08-19 18:49:00,75.1,63.8,29.91,North,-999,0.0,0.0,68,0.00,,,-99.99,WeatherLink 5.7,2013-08-19 22:49:00,
2013-08-19 18:59:00,74.7,63.4,29.91,North,-999,0.0,0.0,68,0.00,,,-99.99,WeatherLink 5.7,2013-08-19 22:59:00,
2013-08-19 19:04:00,74.6,63.8,29.91,North,-999,0.0,0.0,69,0.00,,,-99.99,WeatherLink 5.7,2013-08-19 23:04:00,
2013-08-19 19:14:00,74.2,63.4,29.91,North,-999,0.0,0.0,69,0.00,,,-99.99,WeatherLink 5.7,2013-08-19 23:14:00,
2013-08-19 19:19:00,74.0,63.2,29.92,North,-999,0.0,0.0,69,0.00,,,-99.99,WeatherLink 5.7,2013-08-19 23:19:00,
2013-08-19 19:29:00,73.7,62.9,29.92,North,-999,0.0,0.0,69,0.00,,,-99.99,WeatherLink 5.7,2013-08-19 23:29:00,
2013-08-19 19:39:00,73.3,62.9,29.92,North,-999,0.0,0.0,70,0.00,,,-99.99,WeatherLink 5.7,2013-08-19 23:39:00,
2013-08-19 19:44:00,73.2,62.8,29.92,North,-999,0.0,0.0,70,0.00,,,-99.99,WeatherLink 5.7,2013-08-19 23:44:00,
2013-08-19 19:54:00,72.8,62.4,29.92,North,-999,0.0,0.0,70,0.00,,,-99.99,WeatherLink 5.7,2013-08-19 23:54:00,
2013-08-19 20:04:00,72.5,63.7,29.91,North,-999,0.0,0.0,74,0.00,,,-99.99,WeatherLink 5.7,2013-08-20 00:04:00,
2013-08-19 20:09:00,72.1,62.6,29.91,North,-999,0.0,0.0,72,0.00,,,-99.99,WeatherLink 5.7,2013-08-20 00:09:00,
2013-08-19 20:19:00,71.8,64.2,29.91,North,-999,0.0,0.0,77,0.00,,,-99.99,WeatherLink 5.7,2013-08-20 00:19:00,
2013-08-19 20:29:00,71.5,63.9,29.91,North,-999,0.0,0.0,77,0.00,,,-99.99,WeatherLink 5.7,2013-08-20 00:29:00,
2013-08-19 20:39:00,70.9,63.0,29.92,North,-999,0.0,0.0,76,0.00,,,-99.99,WeatherLink 5.7,2013-08-20 00:39:00,
2013-08-19 20:49:00,70.4,62.8,29.92,North,-999,0.0,0.0,77,0.00,,,-99.99,WeatherLink 5.7,2013-08-20 00:49:00,
2013-08-19 20:59:00,70.1,64.0,29.92,North,-999,0.0,0.0,81,0.00,,,-99.99,WeatherLink 5.7,2013-08-20 00:59:00,
2013-08-19 21:04:00,69.8,64.1,29.92,North,-999,0.0,0.0,82,0.00,,,-99.99,WeatherLink 5.7,2013-08-20 01:04:00,
2013-08-19 21:14:00,69.4,63.0,29.92,North,-999,0.0,0.0,80,0.00,,,-99.99,WeatherLink 5.7,2013-08-20 01:14:00,
2013-08-19 21:19:00,69.3,63.2,29.92,North,-999,0.0,0.0,81,0.00,,,-99.99,WeatherLink 5.7,2013-08-20 01:19:00,
2013-08-19 21:24:00,69.1,63.0,29.92,North,-999,0.0,0.0,81,0.00,,,-99.99,WeatherLink 5.7,2013-08-20 01:24:00,
2013-08-19 21:34:00,68.9,63.2,29.92,North,-999,0.0,0.0,82,0.00,,,-99.99,WeatherLink 5.7,2013-08-20 01:34:00,
2013-08-19 21:39:00,68.8,63.1,29.92,North,-999,0.0,0.0,82,0.00,,,-99.99,WeatherLink 5.7,2013-08-20 01:39:00,
2013-08-19 21:49:00,68.6,63.2,29.92,North,-999,0.0,0.0,83,0.00,,,-99.99,WeatherLink 5.7,2013-08-20 01:49:00,
2013-08-19 21:54:00,68.4,63.0,29.92,North,-999,0.0,0.0,83,0.00,,,-99.99,WeatherLink 5.7,2013-08-20 01:54:00,
2013-08-19 22:04:00,68.4,63.0,29.92,North,-999,0.0,0.0,83,0.00,,,-99.99,WeatherLink 5.7,2013-08-20 02:04:00,
2013-08-19 22:14:00,68.3,63.3,29.92,North,-999,0.0,0.0,84,0.00,,,-99.99,WeatherLink 5.7,2013-08-20 02:14:00,
2013-08-19 22:24:00,68.1,62.4,29.92,North,-999,0.0,0.0,82,0.00,,,-99.99,WeatherLink 5.7,2013-08-20 02:24:00,
2013-08-19 22:34:00,68.1,62.0,29.92,North,-999,0.0,0.0,81,0.00,,,-99.99,WeatherLink 5.7,2013-08-20 02:34:00,
2013-08-19 22:39:00,68.1,62.4,29.92,North,-999,0.0,0.0,82,0.00,,,-99.99,WeatherLink 5.7,2013-08-20 02:39:00,
2013-08-19 22:49:00,68.1,62.4,29.92,North,-999,0.0,0.0,82,0.00,,,-99.99,WeatherLink 5.7,2013-08-20 02:49:00,
2013-08-19 22:59:00,67.9,61.5,29.92,North,-999,0.0,0.0,80,0.00,,,-99.99,WeatherLink 5.7,2013-08-20 02:59:00,
2013-08-19 23:09:00,67.9,61.5,29.92,North,-999,0.0,0.0,80,0.00,,,-99.99,WeatherLink 5.7,2013-08-20 03:09:00,
2013-08-19 23:19:00,67.9,61.5,29.92,North,-999,0.0,0.0,80,0.00,,,-99.99,WeatherLink 5.7,2013-08-20 03:19:00,
2013-08-19 23:29:00,67.9,61.9,29.92,North,-999,0.0,0.0,81,0.00,,,-99.99,WeatherLink 5.7,2013-08-20 03:29:00,
2013-08-19 23:39:00,67.8,61.0,29.92,WNW,292,0.0,2.0,79,0.00,,,-99.99,WeatherLink 5.7,2013-08-20 03:39:00,
2013-08-19 23:49:00,67.9,61.1,29.92,NW,315,0.0,2.0,79,0.00,,,-99.99,WeatherLink 5.7,2013-08-20 03:49:00,
2013-08-19 23:59:00,68.1,61.3,29.92,WNW,292,0.0,2.0,79,0.00,,,-99.99,WeatherLink 5.7,2013-08-20 03:59:00,